KA5FVT Weather Reports


Display with metric or nautical units.
time (UTC)temp
F
wind
direction
speed
MPH
gust
MPH
rain 1hr
in
rain 24hr
in
rain mn
in
humidity
%
barometer
mb
20260831040455 85 165 0.0 0.0 0.00 0.00 0.00 74 1014.7
20260831035955 85 165 0.0 0.0 0.00 0.00 0.00 73 1014.5
20260831035455 85 165 0.0 0.0 0.00 0.00 0.00 73 1014.6
20260831034955 85 165 0.0 1.0 0.00 0.00 0.00 72 1014.5
20260831034454 85 165 0.0 0.0 0.00 0.00 0.00 72 1014.3
20260831033955 86 165 0.0 0.0 0.00 0.00 0.00 71 1014.3
20260831033458 86 165 0.0 0.0 0.00 0.00 0.00 71 1014.5
20260831032955 86 165 0.0 0.0 0.00 0.00 0.00 70 1014.3
20260831032455 86 165 0.0 1.0 0.00 0.00 0.00 70 1014.3
20260831031955 86 165 0.0 0.0 0.00 0.00 0.00 70 1014.4
20260831031455 86 165 0.0 0.0 0.00 0.00 0.00 69 1014.2
20260831030955 86 165 0.0 1.0 0.00 0.00 0.00 69 1014.1
20260831030458 86 165 0.0 0.0 0.00 0.00 0.00 68 1014.1
20260831025954 87 165 0.0 1.0 0.00 0.00 0.00 68 1014.1
20260831025455 87 165 0.0 2.0 0.00 0.00 0.00 67 1014.1
20260831024955 87 165 0.0 0.0 0.00 0.00 0.00 67 1014.0
20260831024455 87 165 0.0 0.0 0.00 0.00 0.00 66 1013.8
20260831023955 87 165 0.0 0.0 0.00 0.00 0.00 65 1013.7
20260831023455 87 165 0.0 0.0 0.00 0.00 0.00 65 1013.7
20260831022954 88 165 0.0 0.0 0.00 0.00 0.00 64 1013.6
20260831022454 88 165 0.0 0.0 0.00 0.00 0.00 64 1013.5
20260831021955 88 165 0.0 0.0 0.00 0.00 0.00 63 1013.4
20260831021455 88 165 0.0 1.0 0.00 0.00 0.00 63 1013.3
20260831020958 88 165 0.0 0.0 0.00 0.00 0.00 63 1013.3
20260831020455 89 165 0.0 0.0 0.00 0.00 0.00 62 1013.2
20260831015955 89 165 0.0 0.0 0.00 0.00 0.00 61 1013.3
20260831015455 89 165 0.0 1.0 0.00 0.00 0.00 61 1013.1
20260831014955 89 165 0.0 1.0 0.00 0.00 0.00 61 1013.1
20260831014455 89 165 1.0 1.0 0.00 0.00 0.00 60 1013.1
20260831013955 90 166 0.0 2.0 0.00 0.00 0.00 60 1013.0
20260831013458 90 166 1.0 2.0 0.00 0.00 0.00 59 1013.1
20260831012955 90 166 0.0 0.0 0.00 0.00 0.00 58 1013.1
20260831012458 90 166 0.0 2.0 0.00 0.00 0.00 57 1013.2
20260831011955 91 166 0.0 1.0 0.00 0.00 0.00 57 1013.1
20260831011455 91 166 0.0 2.0 0.00 0.00 0.00 56 1013.0
20260831010955 91 166 1.0 1.0 0.00 0.00 0.00 56 1012.9
20260831010455 91 166 1.0 1.0 0.00 0.00 0.00 56 1012.9
20260831005954 91 166 1.0 2.0 0.00 0.00 0.00 56 1012.9
20260831005455 91 166 0.0 2.0 0.00 0.00 0.00 55 1012.8
20260831004955 92 166 0.0 1.0 0.00 0.00 0.00 55 1012.9
20260831004454 92 166 0.0 1.0 0.00 0.00 0.00 54 1012.8
20260831003958 92 166 0.0 2.0 0.00 0.00 0.00 52 1012.7
20260831003455 92 166 0.0 1.0 0.00 0.00 0.00 52 1012.7
20260831002954 92 166 0.0 2.0 0.00 0.00 0.00 51 1012.8
20260831002458 93 166 0.0 1.0 0.00 0.00 0.00 50 1012.8
20260831001954 93 166 1.0 1.0 0.00 0.00 0.00 50 1012.6
20260831001454 93 166 0.0 2.0 0.00 0.00 0.00 50 1012.6
20260831000955 93 166 0.0 2.0 0.00 0.00 0.00 50 1012.6
20260831000456 94 167 0.0 2.0 0.00 0.00 0.00 49 1012.7
20260830235954 94 167 0.0 1.0 0.00 0.00 0.00 49 1012.6
20260830235455 94 167 0.0 2.0 0.00 0.00 0.00 49 1012.5
20260830234954 94 167 1.0 2.0 0.00 0.00 0.00 49 1012.6
20260830234455 95 167 0.0 4.0 0.00 0.00 0.00 48 1012.6
20260830233955 95 13 0.0 2.0 0.00 0.00 0.00 48 1012.4
20260830233455 95 11 0.0 2.0 0.00 0.00 0.00 47 1012.4
20260830232958 96 122 0.0 2.0 0.00 0.00 0.00 46 1012.4
20260830232454 96 163 1.0 5.0 0.00 0.00 0.00 45 1012.3
20260830231955 97 130 1.0 4.0 0.00 0.00 0.00 45 1012.5
20260830231458 97 150 1.0 5.0 0.00 0.00 0.00 45 1012.6
20260830230954 98 28 0.0 5.0 0.00 0.00 0.00 45 1012.6
20260830230454 99 151 1.0 6.0 0.00 0.00 0.00 44 1012.5
20260830225954 100 163 1.0 5.0 0.00 0.00 0.00 42 1012.4
20260830225456 100 104 0.0 1.0 0.00 0.00 0.00 40 1012.5
20260830224954 100 99 0.0 1.0 0.00 0.00 0.00 40 1012.4
20260830224455 100 99 0.0 2.0 0.00 0.00 0.00 39 1012.5
20260830223954 100 103 1.0 2.0 0.00 0.00 0.00 40 1012.5
20260830223455 100 88 0.0 1.0 0.00 0.00 0.00 40 1012.5
20260830222955 99 82 0.0 3.0 0.00 0.00 0.00 40 1012.3
20260830222455 99 260 0.0 1.0 0.00 0.00 0.00 41 1012.3
20260830221958 98 260 0.0 0.0 0.00 0.00 0.00 41 1012.4
20260830221454 98 260 0.0 1.0 0.00 0.00 0.00 46 1012.4
20260830220954 97 260 0.0 1.0 0.00 0.00 0.00 41 1012.5
20260830220454 97 260 0.0 2.0 0.00 0.00 0.00 43 1012.5
20260830215955 97 263 0.0 1.0 0.00 0.00 0.00 42 1012.6
20260830215455 97 262 0.0 1.0 0.00 0.00 0.00 43 1012.6
20260830214956 97 262 0.0 0.0 0.00 0.00 0.00 43 1012.7
20260830214454 97 262 0.0 2.0 0.00 0.00 0.00 44 1012.7
20260830213954 97 259 0.0 2.0 0.00 0.00 0.00 43 1012.8
20260830213455 97 161 0.0 1.0 0.00 0.00 0.00 44 1012.8
20260830212954 97 161 0.0 1.0 0.00 0.00 0.00 44 1013.0
20260830212455 97 161 0.0 1.0 0.00 0.00 0.00 45 1012.9
20260830211958 97 161 1.0 2.0 0.00 0.00 0.00 44 1013.1
20260830211455 97 161 0.0 2.0 0.00 0.00 0.00 46 1013.2
20260830210954 98 162 2.0 4.0 0.00 0.00 0.00 45 1013.2
20260830210455 98 165 0.0 1.0 0.00 0.00 0.00 46 1013.3
20260830205954 98 165 0.0 2.0 0.00 0.00 0.00 44 1013.4
20260830205455 98 167 2.0 4.0 0.00 0.00 0.00 45 1013.5
20260830204954 98 158 0.0 1.0 0.00 0.00 0.00 44 1013.5
20260830204458 98 158 0.0 1.0 0.00 0.00 0.00 45 1013.5
20260830203954 98 158 0.0 2.0 0.00 0.00 0.00 44 1013.6
20260830203457 98 158 0.0 1.0 0.00 0.00 0.00 47 1013.5
20260830202955 98 158 0.0 4.0 0.00 0.00 0.00 44 1013.7
20260830202455 98 184 0.0 2.0 0.00 0.00 0.00 45 1013.8
20260830201954 98 161 0.0 2.0 0.00 0.00 0.00 47 1013.9
20260830201455 98 138 2.0 4.0 0.00 0.00 0.00 47 1013.9
20260830200956 98 184 2.0 2.0 0.00 0.00 0.00 48 1014.0
20260830200455 97 174 0.0 2.0 0.00 0.00 0.00 49 1014.1
20260830195955 97 192 1.0 2.0 0.00 0.00 0.00 48 1014.2
20260830195454 97 192 0.0 1.0 0.00 0.00 0.00 49 1014.3
20260830194954 97 192 0.0 2.0 0.00 0.00 0.00 47 1014.5
20260830194458 98 192 2.0 2.0 0.00 0.00 0.00 47 1014.6
20260830193955 97 192 0.0 2.0 0.00 0.00 0.00 48 1014.6
20260830193457 98 194 1.0 3.0 0.00 0.00 0.00 47 1014.8
20260830192955 98 194 1.0 3.0 0.00 0.00 0.00 47 1014.8
20260830192455 97 225 0.0 1.0 0.00 0.00 0.00 48 1015.0
20260830191955 97 226 1.0 1.0 0.00 0.00 0.00 50 1015.1
20260830191455 97 223 0.0 2.0 0.00 0.00 0.00 48 1015.1
20260830190954 97 223 0.0 1.0 0.00 0.00 0.00 50 1015.0
20260830190455 97 223 0.0 1.0 0.00 0.00 0.00 51 1015.1
20260830185954 97 223 0.0 2.0 0.00 0.00 0.00 49 1015.2
20260830185455 97 233 1.0 1.0 0.00 0.00 0.00 51 1015.2
20260830184955 96 233 0.0 2.0 0.00 0.00 0.00 50 1015.2
20260830184455 97 232 0.0 2.0 0.00 0.00 0.00 51 1015.2
20260830183958 97 94 0.0 2.0 0.00 0.00 0.00 51 1015.4
20260830183455 96 91 0.0 2.0 0.00 0.00 0.00 52 1015.7
20260830182955 96 202 0.0 2.0 0.00 0.00 0.00 51 1015.7
20260830182454 96 206 0.0 2.0 0.00 0.00 0.00 53 1015.6
20260830181954 96 202 2.0 2.0 0.00 0.00 0.00 53 1015.8
20260830181455 95 202 0.0 2.0 0.00 0.00 0.00 52 1016.0
20260830180955 95 202 0.0 2.0 0.00 0.00 0.00 54 1016.1
20260830180457 94 270 0.0 1.0 0.00 0.00 0.00 60 1016.1
20260830175954 93 270 0.0 1.0 0.00 0.00 0.00 57 1016.2
20260830175455 93 270 1.0 2.0 0.00 0.00 0.00 57 1016.4
20260830174955 93 270 2.0 2.0 0.00 0.00 0.00 57 1016.5
20260830174454 93 268 0.0 2.0 0.00 0.00 0.00 60 1016.5
20260830173955 94 268 0.0 2.0 0.00 0.00 0.00 58 1016.7
20260830173458 94 177 0.0 1.0 0.00 0.00 0.00 57 1016.7
20260830172958 94 175 1.0 2.0 0.00 0.00 0.00 57 1016.8
20260830172454 94 167 0.0 2.0 0.00 0.00 0.00 57 1016.8
20260830171955 94 182 1.0 1.0 0.00 0.00 0.00 58 1016.8
20260830171454 93 195 0.0 2.0 0.00 0.00 0.00 58 1016.7
20260830170954 93 195 1.0 2.0 0.00 0.00 0.00 59 1016.6
20260830170455 92 287 0.0 2.0 0.00 0.00 0.00 62 1016.6
20260830165955 92 287 2.0 3.0 0.00 0.00 0.00 64 1016.6
20260830165458 91 301 1.0 2.0 0.00 0.00 0.00 63 1016.7
20260830164954 91 338 0.0 2.0 0.00 0.00 0.00 63 1016.9
20260830164455 91 287 2.0 3.0 0.00 0.00 0.00 62 1016.9
20260830163955 91 175 1.0 2.0 0.00 0.00 0.00 64 1016.9
20260830163455 91 250 2.0 2.0 0.00 0.00 0.00 66 1016.9
20260830162955 90 247 1.0 2.0 0.00 0.00 0.00 66 1016.8
20260830162455 89 267 0.0 1.0 0.00 0.00 0.00 67 1016.8
20260830161957 88 267 0.0 0.0 0.00 0.00 0.00 70 1016.9
20260830161454 88 267 0.0 2.0 0.00 0.00 0.00 69 1016.9
20260830160956 88 263 0.0 0.0 0.00 0.00 0.00 70 1016.8
20260830160455 88 263 0.0 2.0 0.00 0.00 0.00 71 1016.9
20260830155958 87 263 0.0 2.0 0.00 0.00 0.00 73 1017.0
20260830155455 87 263 2.0 2.0 0.00 0.00 0.00 75 1016.9
20260830154954 86 263 0.0 3.0 0.00 0.00 0.00 74 1016.9
20260830154455 86 223 1.0 1.0 0.00 0.00 0.00 77 1016.8
20260830153954 85 223 0.0 2.0 0.00 0.00 0.00 77 1016.8
20260830153455 85 223 0.0 0.0 0.00 0.00 0.00 78 1016.8
20260830152958 85 223 0.0 0.0 0.00 0.00 0.00 78 1016.7
20260830152455 85 223 0.0 0.0 0.00 0.00 0.00 78 1016.7
20260830151955 85 223 0.0 1.0 0.00 0.00 0.00 78 1016.6
20260830151454 85 223 0.0 2.0 0.00 0.00 0.00 78 1016.6
20260830150955 85 223 1.0 1.0 0.00 0.00 0.00 80 1016.8
20260830150454 84 223 1.0 1.0 0.00 0.00 0.00 80 1017.0
20260830145958 84 258 0.0 1.0 0.00 0.00 0.00 80 1016.9
20260830145455 84 258 0.0 2.0 0.00 0.00 0.00 81 1016.9
20260830144955 84 190 1.0 2.0 0.00 0.00 0.00 81 1016.7
20260830144457 84 214 0.0 2.0 0.00 0.00 0.00 82 1016.9
20260830143955 84 214 1.0 2.0 0.00 0.00 0.00 84 1016.9
20260830143454 84 180 0.0 2.0 0.00 0.00 0.00 84 1016.7
20260830142955 83 180 1.0 1.0 0.00 0.00 0.00 84 1016.7
20260830142458 83 162 0.0 1.0 0.00 0.00 0.00 85 1016.8
20260830141955 83 162 0.0 0.0 0.00 0.00 0.00 86 1016.9
20260830141454 82 162 0.0 0.0 0.00 0.00 0.00 86 1016.8
20260830140954 82 162 0.0 0.0 0.00 0.00 0.00 87 1017.0
20260830140455 82 162 0.0 0.0 0.00 0.00 0.00 88 1016.9
20260830135955 81 162 0.0 0.0 0.00 0.00 0.00 89 1016.7
20260830135455 81 162 0.0 1.0 0.00 0.00 0.00 89 1016.6
20260830134954 81 162 0.0 0.0 0.00 0.00 0.00 90 1016.6
20260830134455 80 162 0.0 0.0 0.00 0.00 0.00 91 1016.5
20260830133955 80 162 0.0 0.0 0.00 0.00 0.00 92 1016.5
20260830133455 79 162 0.0 0.0 0.00 0.01 0.00 93 1016.5
20260830132954 79 162 0.0 0.0 0.00 0.01 0.00 93 1016.4
20260830132455 79 162 0.0 0.0 0.00 0.01 0.00 94 1016.4
20260830131955 79 162 0.0 0.0 0.00 0.01 0.00 94 1016.5
20260830131455 78 162 0.0 0.0 0.00 0.01 0.00 94 1016.5
20260830130954 78 162 0.0 0.0 0.00 0.01 0.00 94 1016.4
20260830130454 78 162 0.0 0.0 0.00 0.01 0.00 94 1016.3
20260830125955 78 162 0.0 0.0 0.00 0.01 0.00 94 1016.2
20260830125455 78 162 0.0 0.0 0.00 0.01 0.00 94 1016.2
20260830124956 78 162 0.0 0.0 0.00 0.01 0.00 93 1016.1
20260830124455 77 162 0.0 0.0 0.00 0.01 0.00 93 1016.0
20260830123955 77 162 0.0 0.0 0.00 0.01 0.00 93 1016.1
20260830123458 77 162 0.0 0.0 0.00 0.01 0.00 93 1016.0
20260830122958 77 162 0.0 0.0 0.00 0.01 0.00 93 1016.0
20260830122455 77 162 0.0 0.0 0.00 0.01 0.00 93 1016.0
20260830121955 77 162 0.0 0.0 0.00 0.01 0.00 93 1016.0
20260830121454 77 162 0.0 0.0 0.00 0.01 0.00 93 1016.0
20260830120954 77 162 0.0 0.0 0.00 0.01 0.00 93 1016.0
20260830120454 77 162 0.0 0.0 0.00 0.01 0.00 93 1016.0
20260830115957 77 162 0.0 0.0 0.00 0.01 0.00 93 1015.9
20260830115455 77 162 0.0 0.0 0.00 0.01 0.00 93 1015.8
20260830114958 77 162 0.0 0.0 0.00 0.01 0.00 92 1015.8
20260830114455 77 162 0.0 0.0 0.00 0.01 0.00 92 1015.8
20260830113954 78 162 0.0 0.0 0.00 0.01 0.00 92 1015.9
20260830113454 78 162 0.0 0.0 0.00 0.01 0.00 92 1016.0
20260830112955 78 162 0.0 0.0 0.00 0.01 0.00 92 1015.9
20260830112454 78 162 0.0 0.0 0.00 0.01 0.00 92 1015.9
20260830111957 78 162 0.0 0.0 0.00 0.01 0.00 92 1016.0
20260830111454 78 162 0.0 0.0 0.00 0.01 0.00 92 1015.8
20260830110958 78 162 0.0 0.0 0.00 0.01 0.00 92 1015.7
20260830110455 78 162 0.0 0.0 0.00 0.01 0.00 92 1015.7
20260830105957 78 162 0.0 0.0 0.00 0.01 0.00 92 1015.7
20260830105455 78 162 0.0 0.0 0.00 0.01 0.00 92 1015.6
20260830104958 78 162 0.0 0.0 0.00 0.01 0.00 92 1015.6
20260830104455 78 162 0.0 0.0 0.00 0.01 0.00 92 1015.5
20260830103955 78 162 0.0 0.0 0.00 0.01 0.00 91 1015.5
20260830103455 78 162 0.0 0.0 0.00 0.01 0.00 91 1015.4
20260830102954 78 162 0.0 0.0 0.00 0.01 0.00 91 1015.4
20260830102458 78 162 0.0 0.0 0.00 0.01 0.00 91 1015.6
20260830101955 78 162 0.0 0.0 0.00 0.01 0.00 91 1015.5
20260830101458 78 162 0.0 0.0 0.00 0.01 0.00 91 1015.5
20260830100954 78 162 0.0 0.0 0.00 0.01 0.00 91 1015.4
20260830100454 78 162 0.0 0.0 0.00 0.01 0.00 91 1015.2
20260830095954 79 162 0.0 0.0 0.00 0.01 0.00 90 1015.3
20260830095457 79 162 0.0 0.0 0.00 0.01 0.00 90 1015.3
20260830094954 79 162 0.0 0.0 0.00 0.01 0.00 90 1015.1
20260830094455 79 162 0.0 0.0 0.00 0.01 0.00 90 1015.1
20260830093955 79 162 0.0 0.0 0.00 0.01 0.00 90 1015.1
20260830093454 79 162 0.0 0.0 0.00 0.01 0.00 90 1015.2
20260830092954 79 162 0.0 0.0 0.00 0.01 0.00 90 1015.2
20260830092454 79 162 0.0 0.0 0.00 0.01 0.00 90 1015.2
20260830091955 79 162 0.0 0.0 0.00 0.01 0.00 89 1015.3
20260830091455 79 162 0.0 0.0 0.00 0.01 0.00 89 1015.4
20260830090955 79 162 0.0 0.0 0.00 0.01 0.00 89 1015.3
20260830090455 79 162 0.0 0.0 0.00 0.01 0.00 89 1015.5
20260830085955 79 162 0.0 0.0 0.00 0.01 0.00 89 1015.5
20260830085454 79 162 0.0 0.0 0.00 0.01 0.00 89 1015.5
20260830084954 79 162 0.0 0.0 0.00 0.01 0.00 89 1015.4
20260830084458 79 162 0.0 0.0 0.00 0.01 0.00 89 1015.4
20260830083958 80 162 0.0 0.0 0.00 0.01 0.00 89 1015.4
20260830083458 80 162 0.0 0.0 0.00 0.01 0.00 89 1015.5
20260830082955 80 162 0.0 0.0 0.00 0.01 0.00 88 1015.5
20260830082455 80 162 0.0 0.0 0.00 0.01 0.00 88 1015.5
20260830081957 80 162 0.0 0.0 0.00 0.01 0.00 88 1015.5
20260830081455 80 162 0.0 0.0 0.00 0.01 0.00 88 1015.5
20260830080955 80 162 0.0 0.0 0.00 0.01 0.00 88 1015.5
20260830080454 80 162 0.0 0.0 0.00 0.01 0.00 88 1015.4
20260830075954 80 162 0.0 0.0 0.00 0.01 0.00 87 1015.4
20260830075454 80 162 0.0 0.0 0.00 0.01 0.00 87 1015.4
20260830074955 80 162 0.0 0.0 0.00 0.01 0.00 87 1015.4
20260830074454 80 162 0.0 0.0 0.00 0.01 0.00 87 1015.4
20260830073954 80 162 0.0 0.0 0.00 0.01 0.00 87 1015.5
20260830073454 80 162 0.0 0.0 0.00 0.01 0.00 87 1015.6
20260830072956 80 162 0.0 0.0 0.00 0.01 0.00 87 1015.7
20260830072455 81 162 0.0 0.0 0.00 0.01 0.00 87 1015.8
20260830071954 81 162 0.0 0.0 0.00 0.01 0.00 86 1015.6
20260830071454 81 162 0.0 0.0 0.00 0.01 0.00 86 1015.6
20260830070954 81 162 0.0 0.0 0.00 0.01 0.00 86 1015.6
20260830070455 81 162 0.0 0.0 0.00 0.01 0.00 86 1015.6
20260830065954 81 162 0.0 0.0 0.00 0.01 0.00 86 1015.8
20260830065457 81 162 0.0 0.0 0.00 0.01 0.00 85 1015.7
20260830064957 81 162 0.0 0.0 0.00 0.01 0.00 85 1015.6
20260830064454 81 162 0.0 0.0 0.00 0.01 0.00 85 1015.7
20260830063955 81 162 0.0 0.0 0.00 0.01 0.00 85 1015.6
20260830063454 81 162 0.0 0.0 0.00 0.01 0.00 84 1015.6
20260830062955 81 162 0.0 0.0 0.00 0.01 0.00 84 1015.6
20260830062455 81 162 0.0 0.0 0.00 0.01 0.00 84 1015.6
20260830061955 82 162 0.0 0.0 0.00 0.01 0.00 84 1015.6
20260830061454 82 162 0.0 0.0 0.00 0.01 0.00 83 1015.6
20260830060955 82 162 0.0 0.0 0.00 0.01 0.00 83 1015.7
20260830060455 82 162 0.0 0.0 0.00 0.01 0.00 83 1015.6
20260830055954 82 162 0.0 0.0 0.00 0.01 0.00 83 1015.6
20260830055454 82 162 0.0 0.0 0.00 0.01 0.00 82 1015.6
20260830054955 82 162 0.0 0.0 0.00 0.01 0.00 82 1015.7
20260830054457 82 162 0.0 0.0 0.00 0.01 0.00 81 1015.5
20260830053955 82 162 0.0 0.0 0.00 0.01 0.00 81 1015.6
20260830053455 82 162 0.0 0.0 0.00 0.01 0.00 81 1015.6
20260830052955 83 162 0.0 0.0 0.00 0.01 0.00 80 1015.5
20260830052455 83 162 0.0 0.0 0.00 0.01 0.00 80 1015.5
20260830051957 83 162 0.0 0.0 0.00 0.01 0.00 79 1015.6
20260830051454 83 162 0.0 0.0 0.00 0.01 0.00 79 1015.6
20260830050955 83 162 0.0 0.0 0.00 0.01 0.00 79 1015.7
20260830050454 83 162 0.0 0.0 0.00 0.01 0.00 78 1015.6
20260830045954 83 162 0.0 0.0 0.00 0.01 0.00 78 1015.6
20260830045458 83 162 0.0 0.0 0.00 0.01 0.00 78 1015.6
20260830044955 84 162 0.0 0.0 0.00 0.01 0.00 77 1015.6
20260830044455 84 162 0.0 0.0 0.00 0.01 0.00 77 1015.6
20260830043957 84 162 0.0 0.0 0.00 0.01 0.00 77 1015.7
20260830043454 84 162 0.0 0.0 0.00 0.01 0.00 76 1015.5
20260830042954 84 162 0.0 0.0 0.00 0.01 0.00 76 1015.6
20260830042455 84 162 0.0 0.0 0.00 0.01 0.00 76 1015.6
20260830041954 84 162 0.0 0.0 0.00 0.01 0.00 75 1015.5
20260830041454 84 162 0.0 0.0 0.00 0.01 0.00 75 1015.5
20260830040958 85 162 0.0 0.0 0.00 0.01 0.00 75 1015.5